Bradshaw AFB, HI

7:12 PM HST on June 26, 2017 (GMT -1000)
Bradshaw Army Air Field

Weather History for PHSF - June, 2014

Change the Weather History Date:

Tuesday, June 3, 2014

  Actual Average Record
Temperature  
Mean Temperature 58 °F -  
Max Temperature 71 °F 68 °F 77 °F (2013)
Min Temperature 44 °F 51 °F 44 °F (2008)
Degree Days  
Heating Degree Days 8    
Growing Degree Days 8 (Base 50)    
Moisture  
Dew Point 44 °F    
Average Humidity 63    
Maximum Humidity 83    
Minimum Humidity 33    
Precipitation  
Precipitation 0.00 in - - ()
Sea Level Pressure  
Sea Level Pressure 30.02 in    
Wind  
Wind Speed 5 mph (SSE)    
Max Wind Speed 13 mph    
Max Gust Speed 23 mph    
Visibility 11 miles    
Events      
Averages and records for this station are not official NWS values.
T = Trace of Precipitation, MM = Missing Value Source: NWS Daily Summary

Daily Weather History Graph

Daily Weather History Graph

Search for Another Location

Airport or City:

Trip Planner

Search our weather history database for the weather conditions in past years. The results will help you decide how hot, cold, wet, or windy it might be!

Date:

Astronomy

Jun. 03, 2014 Rise Set
Actual Time 5:42 AM HST 6:58 PM HST
Civil Twilight 5:18 AM HST 7:22 PM HST
Nautical Twilight 4:49 AM HST 7:51 PM HST
Astronomical Twilight 4:19 AM HST 8:21 PM HST
Moon 10:48 AM HST (6/3) 11:35 PM HST (6/3)
Length of Visible Light 14h 04m
Length of Day
13h 15m
Waxing Crescent, 32% of the Moon is Illuminated
Jun 3
Waxing Crescent
Jun 5
First Quarter
Jun 12
Full
Jun 19
Last Quarter
Jun 26
New

Hourly Weather History & Observations

Time (HST) Temp. Windchill Dew Point Humidity Pressure Visibility Wind Dir Wind Speed Gust Speed Precip Events Conditions
12:56 AM 47.5 °F - 37.6 °F 69% 29.94 in 10.0 mi ESE 3.5 mph - N/A   Clear
1:56 AM 47.5 °F - 35.6 °F 63% 29.92 in 10.0 mi ESE 3.5 mph - N/A   Clear
2:56 AM 46.2 °F 45.0 °F 34.2 °F 63% 29.91 in 11.0 mi ESE 3.5 mph - N/A   Clear
3:56 AM 44.8 °F 41.6 °F 32.2 °F 61% 29.92 in 10.0 mi ESE 5.8 mph - N/A   Clear
4:56 AM 45.0 °F 42.6 °F 30.2 °F 56% 29.94 in 10.0 mi ESE 4.6 mph - N/A   Clear
5:56 AM 46.2 °F 44.1 °F 27.1 °F 47% 29.95 in 9.0 mi ESE 4.6 mph - N/A   Clear
6:56 AM 52.0 °F - 29.1 °F 41% 29.96 in 9.0 mi North 1.2 mph - N/A   Clear
7:56 AM 59.2 °F - 36.1 °F 42% 29.96 in 10.0 mi SW 2.3 mph - N/A   Clear
8:56 AM 63.3 °F - 35.4 °F 35% 29.96 in 10.0 mi West 2.3 mph - N/A   Clear
9:56 AM 66.2 °F - 36.1 °F 33% 29.97 in 11.0 mi West 4.6 mph - N/A   Partly Cloudy
10:56 AM 66.4 °F - 43.3 °F 43% 29.98 in 11.0 mi West 8.1 mph 17.3 mph N/A   Clear
11:56 AM 68.4 °F - 52.3 °F 57% 29.96 in 11.0 mi West 10.4 mph 17.3 mph N/A   Clear
12:56 PM 71.4 °F - 42.4 °F 35% 29.94 in 11.0 mi West 12.7 mph 20.7 mph N/A   Partly Cloudy
1:56 PM 69.4 °F - 50.0 °F 50% 29.93 in 12.0 mi WSW 12.7 mph 23.0 mph N/A   Partly Cloudy
2:56 PM 67.6 °F - 52.3 °F 58% 29.94 in 11.0 mi WSW 11.5 mph 23.0 mph N/A   Clear
3:56 PM 65.8 °F - 53.8 °F 65% 29.94 in 12.0 mi West 9.2 mph 17.3 mph N/A   Clear
4:56 PM 66.2 °F - 54.5 °F 66% 29.93 in 10.0 mi West 5.8 mph - N/A   Partly Cloudy
5:16 PM 64.4 °F - 55.4 °F 73% 30.24 in 12.0 mi West 5.8 mph - N/A   Mostly Cloudy
5:56 PM 60.8 °F - 53.8 °F 78% 29.96 in 12.0 mi SSE 10.4 mph - N/A   Mostly Cloudy
6:56 PM 57.2 °F - 52.0 °F 83% 29.96 in 10.0 mi SE 10.4 mph - N/A   Mostly Cloudy
7:56 PM 57.2 °F - 50.2 °F 77% 29.97 in 10.0 mi SE 6.9 mph - N/A   Overcast
8:56 PM 55.9 °F - 48.4 °F 76% 29.99 in 11.0 mi SE 5.8 mph - N/A   Mostly Cloudy
9:01 PM 55.4 °F - 48.2 °F 77% 30.32 in 11.0 mi SE 5.8 mph - N/A   Overcast
9:11 PM 55.4 °F - 48.2 °F 77% 30.32 in 10.0 mi SE 4.6 mph - N/A   Mostly Cloudy
9:21 PM 55.4 °F - 48.2 °F 77% 30.33 in 11.0 mi SE 4.6 mph - N/A   Mostly Cloudy
9:36 PM 53.6 °F - 48.2 °F 82% 30.32 in 11.0 mi ESE 5.8 mph - N/A   Mostly Cloudy
9:56 PM 54.1 °F - 48.0 °F 80% 29.99 in 10.0 mi ESE 4.6 mph - N/A   Overcast
10:36 PM 55.4 °F - 48.2 °F 77% 30.32 in 10.0 mi SE 2.3 mph - N/A   Scattered Clouds
10:56 PM 52.5 °F - 47.3 °F 82% 29.99 in 11.0 mi SE 5.8 mph - N/A   Clear
11:56 PM 50.0 °F - 43.7 °F 79% 29.98 in 11.0 mi ESE 5.8 mph - N/A   Clear